Regional Weather Roundup
Issued by NWS

Home | Current Version | Previous Version | Text Only | Print | Product List | Glossary Off
Versions: 1 2 3 4 5 6 7 8 9 10 11 12 13 14 15 16 17 18 19 20 21 22 23 24 25 26 27 28 29 30 31 32 33 34 35 36 37 38 39 40 41 42 43 44 45 46 47 48 49 50

000
ASUS43 KBIS 201520
RWRND

NORTH DAKOTA REGIONAL WEATHER ROUNDUP
NATIONAL WEATHER SERVICE BISMARCK ND
900 AM CST SAT DEC 20 2014

NOTE: "FAIR" INDICATES FEW OR NO CLOUDS BELOW 12,000 FEET WITH NO
SIGNIFICANT WEATHER AND/OR OBSTRUCTIONS TO VISIBILITY.


NDZ001>003-009>011-017-201600-
NORTHWEST NORTH DAKOTA

CITY           SKY/WX    TMP DP  RH WIND       PRES   REMARKS
WILLISTON      CLOUDY    22  19  89 SW5       29.83F WCI  16
MINOT          FOG       22  20  92 SE7       29.88S VSB<1/4 WCI  13
MINOT AFB      FRZ DRZL  23  23 100 SE5       29.88S VSB 1/4 WCI  17
$$

NDZ018>021-031>035-040>046-201600-
SOUTHWEST NORTH DAKOTA

CITY           SKY/WX    TMP DP  RH WIND       PRES   REMARKS
BISMARCK       CLOUDY    14  12  92 E6        29.92S WCI   5
DICKINSON      CLOUDY    33  26  75 SW6       29.82S
GARRISON         N/A     19  16  88 SE5       29.88R WCI  12
HETTINGER ARPT CLOUDY    32  25  75 W5        29.86F
$$

NDZ004>008-012>016-024-026-027-054-201600-
NORTHEAST NORTH DAKOTA

CITY           SKY/WX    TMP DP  RH WIND       PRES   REMARKS
GRAND FORKS    CLOUDY    26  25  96 SW9       30.01R FOG     WCI  17
GRND FRKS AFB  CLOUDY    26  26 100 SW10      30.00S WCI  16
DEVILS LAKE    CLOUDY    21  16  79 S5        29.93S VSB 1/4 WCI  15
$$

NDZ022-023-025-028>030-036>039-047>053-201600-
SOUTHEAST NORTH DAKOTA

CITY           SKY/WX    TMP DP  RH WIND       PRES   REMARKS
FARGO          CLOUDY    30  27  88 S12       30.03S
JAMESTOWN      FOG       22  18  85 S7        29.96R VSB 1/4 WCI  13
$$




USA.gov is the U.S. government's official web portal to all federal, state and local government web resources and services.